Rio Gallegos, Argentina

10:14 AM America on February 21, 2018 (GMT +0000)
Norberto Fernandez

Weather History for SAWG - December, 2012

Change the Weather History Date:

Thursday, December 13, 2012

  Actual Average Record
Temperature  
Mean Temperature 51 °F -  
Max Temperature 61 °F 66 °F 84 °F (2002)
Min Temperature 41 °F 45 °F 31 °F (2015)
Degree Days  
Heating Degree Days 14    
Growing Degree Days 1 (Base 50)    
Moisture  
Dew Point 36 °F    
Average Humidity 56    
Maximum Humidity 81    
Minimum Humidity 29    
Precipitation  
Precipitation 0.01 in 0.04 in - ()
Sea Level Pressure  
Sea Level Pressure 29.45 in    
Wind  
Wind Speed 12 mph ()    
Max Wind Speed 21 mph    
Max Gust Speed -    
Visibility 7.7 miles    
Events Rain    
Averages and records for this station are not official NWS values.
T = Trace of Precipitation, MM = Missing Value Source: Averaged Metar Reports

Daily Weather History Graph

Daily Weather History Graph

Search for Another Location

Airport or City:

Trip Planner

Search our weather history database for the weather conditions in past years. The results will help you decide how hot, cold, wet, or windy it might be!

Date:

Astronomy

Dec. 13, 2012 Rise Set
Actual Time 5:13 AM -03 9:49 PM -03
Civil Twilight 4:26 AM -03 10:37 PM -03
Nautical Twilight 3:12 AM -03 11:51 PM -03
Astronomical Twilight 2:03 AM -03 12:59 AM -03
Moon 5:37 AM -03 (12/13) 10:03 PM -03 (12/13)
Length of Visible Light 18h 11m
Length of Day
16h 36m
New Moon, 0% of the Moon is Illuminated
Dec 13
New Moon
Dec 20
First Quarter
Dec 28
Full
Jan 5
Last Quarter
Jan 11
New

Hourly Weather History & Observations

Time (-03) Temp. Windchill Dew Point Humidity Pressure Visibility Wind Dir Wind Speed Gust Speed Precip Events Conditions
12:00 AM 50.0 °F - 39.2 °F 66% 29.44 in 6.2 mi West 19.6 mph - N/A   Scattered Clouds
1:00 AM 48.2 °F - 39.2 °F 71% 29.47 in 6.2 mi West 16.1 mph - N/A   Scattered Clouds
2:00 AM 48.2 °F - 41.0 °F 76% 29.47 in 6.2 mi West 13.8 mph - N/A   Scattered Clouds
3:00 AM 46.4 °F 40.4 °F 39.2 °F 76% 29.47 in 6.2 mi West 13.8 mph - N/A   Partly Cloudy
4:00 AM 44.6 °F 37.4 °F 37.4 °F 76% 29.50 in 6.2 mi West 16.1 mph - N/A   Partly Cloudy
5:00 AM 42.8 °F 36.2 °F 37.4 °F 81% 29.50 in 6.2 mi West 12.7 mph - N/A   Partly Cloudy
6:00 AM 42.8 °F 35.4 °F 37.4 °F 81% 29.53 in 6.2 mi West 15.0 mph - N/A   Scattered Clouds
7:00 AM 44.6 °F 38.4 °F 35.6 °F 71% 29.53 in 6.2 mi WSW 12.7 mph - N/A   Scattered Clouds
8:00 AM 48.2 °F - 35.6 °F 62% 29.53 in 6.2 mi WSW 10.4 mph - N/A   Scattered Clouds
9:00 AM 50 °F - 32 °F 38% 29.54 in 19 mi WSW 10.4 mph - -   Clear
9:00 AM 50.0 °F - 32.0 °F 50% 29.53 in - WSW 10.4 mph - N/A   Clear
10:00 AM 55.4 °F - 30.2 °F 38% 29.50 in - SSW 11.5 mph - N/A   Clear
11:00 AM 57.2 °F - 33.8 °F 41% 29.50 in 6.2 mi SW 5.8 mph - N/A   Scattered Clouds
12:00 PM 59.0 °F - 30.2 °F 34% 29.47 in 6.2 mi WNW 6.9 mph - N/A   Unknown
1:00 PM 59.0 °F - 33.8 °F 39% 29.47 in 6.2 mi WNW 9.2 mph - N/A   Scattered Clouds
2:00 PM 53.6 °F - 37.4 °F 54% 29.44 in 6.2 mi NNE 16.1 mph - N/A   Mostly Cloudy
3:00 PM 53 °F - 43 °F 58% 29.47 in 16 mi North 13.8 mph - - Rain Light Rain
3:00 PM 53.6 °F - 42.8 °F 67% 29.44 in 6.2 mi North 13.8 mph - N/A   Scattered Clouds
4:00 PM 59.0 °F - 35.6 °F 42% 29.42 in 6.2 mi NNE 12.7 mph - N/A   Scattered Clouds
5:00 PM 57.2 °F - 32.0 °F 38% 29.39 in 6.2 mi NE 13.8 mph - N/A   Scattered Clouds
6:00 PM 59.0 °F - 26.6 °F 29% 29.36 in 6.2 mi NE 10.4 mph - N/A   Scattered Clouds
7:00 PM 55.4 °F - 28.4 °F 36% 29.36 in 6.2 mi NE 19.6 mph - N/A   Scattered Clouds
8:00 PM 53.6 °F - 35.6 °F 51% 29.33 in 6.2 mi NE 11.5 mph - N/A   Scattered Clouds
9:00 PM 52 °F - 33 °F 37% 29.33 in 19 mi NE 20.7 mph - -   Partly Cloudy
10:00 PM 50.0 °F - 41.0 °F 71% 29.30 in 6.2 mi NE 20.7 mph - N/A   Scattered Clouds
11:00 PM 50.0 °F - 39.2 °F 66% 29.30 in 6.2 mi NE 9.2 mph - N/A   Mostly Cloudy